FW8685 Weather Reports


Display with metric or nautical units.
time (UTC)temp
F
wind
direction
speed
MPH
gust
MPH
rain 1hr
in
rain 24hr
in
rain mn
in
humidity
%
barometer
mb
20260831132025 77 111 8.0 12.0 0.00 0.00 0.00 64 1013.2
20260831131557 76 105 6.0 10.0 0.00 0.00 0.00 65 1013.2
20260831131025 76 119 6.0 10.0 0.00 0.00 0.00 66 1013.2
20260831130525 75 124 7.0 11.0 0.00 0.00 0.00 67 1013.0
20260831130047 75 117 7.0 11.0 0.00 0.00 0.00 69 1013.1
20260831125527 74 111 6.0 10.0 0.00 0.00 0.00 70 1013.0
20260831125025 73 111 7.0 10.0 0.00 0.00 0.00 72 1012.9
20260831124545 72 111 7.0 10.0 0.00 0.00 0.00 73 1012.8
20260831124023 72 98 6.0 9.0 0.00 0.00 0.00 74 1012.7
20260831123526 71 114 4.0 7.0 0.00 0.00 0.00 74 1012.7
20260831123046 71 107 3.0 7.0 0.00 0.00 0.00 74 1012.7
20260831122529 71 97 4.0 6.0 0.00 0.00 0.00 73 1012.8
20260831122024 71 116 3.0 6.0 0.00 0.00 0.00 73 1012.8
20260831121550 71 125 3.0 6.0 0.00 0.00 0.00 73 1012.8
20260831121029 71 107 3.0 4.0 0.00 0.00 0.00 73 1012.8
20260831120528 71 104 2.0 4.0 0.00 0.00 0.00 73 1012.9
20260831120048 71 103 2.0 4.0 0.00 0.00 0.00 73 1012.8
20260831115526 72 98 2.0 6.0 0.00 0.00 0.00 73 1012.7
20260831115024 72 93 3.0 6.0 0.00 0.00 0.00 73 1012.7
20260831114547 72 92 1.0 4.0 0.00 0.00 0.00 72 1012.6
20260831114025 72 0 0.0 0.0 0.00 0.00 0.00 71 1012.7
20260831113524 72 0 0.0 0.0 0.00 0.00 0.00 71 1012.5
20260831113049 72 0 0.0 1.0 0.00 0.00 0.00 70 1012.5
20260831112526 72 0 0.0 2.0 0.00 0.00 0.00 70 1012.3
20260831112024 72 109 0.0 3.0 0.00 0.00 0.00 70 1012.4
20260831111551 72 109 1.0 3.0 0.00 0.00 0.00 70 1012.3
20260831111024 73 109 1.0 3.0 0.00 0.00 0.00 69 1012.3
20260831110524 73 109 2.0 3.0 0.00 0.00 0.00 69 1012.2
20260831110046 73 109 1.0 4.0 0.00 0.00 0.00 68 1012.2
20260831105525 73 109 2.0 4.0 0.00 0.00 0.00 68 1012.0
20260831105026 73 110 2.0 4.0 0.00 0.00 0.00 67 1012.0
20260831104551 73 119 2.0 4.0 0.00 0.00 0.00 67 1012.0
20260831104026 74 113 3.0 6.0 0.00 0.00 0.00 67 1011.8
20260831103524 74 123 2.0 6.0 0.00 0.00 0.00 66 1011.8
20260831103050 74 105 3.0 6.0 0.00 0.00 0.00 66 1011.7
20260831102524 74 111 3.0 4.0 0.00 0.00 0.00 65 1011.7
20260831102025 75 109 2.0 4.0 0.00 0.00 0.00 65 1011.8
20260831101546 75 105 2.0 4.0 0.00 0.00 0.00 65 1011.7
20260831101023 75 107 2.0 4.0 0.00 0.00 0.00 65 1011.7
20260831100525 75 108 2.0 4.0 0.00 0.00 0.00 64 1011.7
20260831100100 75 106 3.0 4.0 0.00 0.00 0.00 64 1011.7
20260831095525 76 109 3.0 4.0 0.00 0.00 0.00 63 1011.4
20260831095026 76 115 3.0 6.0 0.00 0.00 0.00 63 1011.3
20260831094548 76 116 3.0 6.0 0.00 0.00 0.00 62 1011.3
20260831094024 76 117 3.0 6.0 0.00 0.00 0.00 62 1011.5
20260831093525 77 108 4.0 6.0 0.00 0.00 0.00 62 1011.3
20260831093056 77 112 3.0 6.0 0.00 0.00 0.00 61 1011.2
20260831092523 77 115 3.0 5.0 0.00 0.00 0.00 61 1011.2
20260831092022 77 145 3.0 7.0 0.00 0.00 0.00 61 1011.3
20260831091541 77 138 3.0 7.0 0.00 0.00 0.00 60 1011.1
20260831091029 78 122 2.0 7.0 0.00 0.00 0.00 60 1011.0
20260831090523 78 126 3.0 8.0 0.00 0.00 0.00 60 1011.0
20260831090056 78 125 3.0 8.0 0.00 0.00 0.00 60 1011.2
20260831085525 78 126 4.0 8.0 0.00 0.00 0.00 59 1011.0
20260831085024 78 110 4.0 8.0 0.00 0.00 0.00 59 1010.8
20260831084545 78 130 3.0 9.0 0.00 0.00 0.00 59 1010.8
20260831084025 78 122 5.0 9.0 0.00 0.00 0.00 59 1010.9
20260831083525 79 135 5.0 9.0 0.00 0.00 0.00 59 1010.7
20260831083102 79 149 5.0 9.0 0.00 0.00 0.00 58 1010.7
20260831082525 79 108 5.0 10.0 0.00 0.00 0.00 58 1010.5
20260831082025 79 127 5.0 10.0 0.00 0.00 0.00 58 1010.7
20260831081555 79 134 5.0 9.0 0.00 0.00 0.00 58 1010.7
20260831081027 79 121 6.0 9.0 0.00 0.00 0.00 57 1010.6
20260831080525 80 130 6.0 12.0 0.00 0.00 0.00 57 1010.6
20260831080120 80 114 6.0 12.0 0.00 0.00 0.00 57 1010.5
20260831075528 80 111 6.0 12.0 0.00 0.00 0.00 56 1010.7
20260831075026 80 120 6.0 10.0 0.00 0.00 0.00 56 1010.7
20260831074547 81 113 6.0 10.0 0.00 0.00 0.00 56 1010.8
20260831074024 81 121 6.0 9.0 0.00 0.00 0.00 55 1010.8
20260831073524 81 110 6.0 12.0 0.00 0.00 0.00 55 1010.8
20260831073045 81 103 6.0 12.0 0.00 0.00 0.00 54 1010.8
20260831072527 81 125 7.0 12.0 0.00 0.00 0.00 54 1010.9
20260831072025 82 117 7.0 12.0 0.00 0.00 0.00 54 1010.8
20260831071548 82 137 5.0 12.0 0.00 0.00 0.00 54 1011.0
20260831071025 82 140 5.0 11.0 0.00 0.00 0.00 53 1010.9
20260831070524 82 144 5.0 11.0 0.00 0.00 0.00 53 1010.8
20260831070048 82 124 6.0 13.0 0.00 0.00 0.00 53 1010.9
20260831065526 83 123 7.0 13.0 0.00 0.00 0.00 52 1010.9
20260831065025 83 141 7.0 14.0 0.00 0.00 0.00 52 1010.9
20260831064544 83 113 7.0 14.0 0.00 0.00 0.00 52 1010.8
20260831064025 83 126 9.0 15.0 0.00 0.00 0.00 52 1010.8
20260831063525 83 118 9.0 15.0 0.00 0.00 0.00 52 1010.7
20260831063106 83 134 8.0 16.0 0.00 0.00 0.00 52 1010.6
20260831062524 84 141 9.0 17.0 0.00 0.00 0.00 51 1010.4
20260831062024 84 134 10.0 17.0 0.00 0.00 0.00 51 1010.3
20260831061547 84 113 9.0 16.0 0.00 0.00 0.00 51 1010.4
20260831061027 84 119 10.0 20.0 0.00 0.00 0.00 51 1010.4
20260831060524 84 113 10.0 20.0 0.00 0.00 0.00 50 1010.3
20260831060048 84 119 11.0 19.0 0.00 0.00 0.00 50 1010.3
20260831055524 84 126 10.0 19.0 0.00 0.00 0.00 50 1010.2
20260831055025 84 111 11.0 19.0 0.00 0.00 0.00 50 1010.2
20260831054543 84 128 10.0 20.0 0.00 0.00 0.00 50 1010.0
20260831054025 84 109 9.0 20.0 0.00 0.00 0.00 50 1009.8
20260831053525 84 140 8.0 17.0 0.00 0.00 0.00 50 1009.7
20260831053122 84 122 11.0 16.0 0.00 0.00 0.00 50 1009.6
20260831052524 84 113 9.0 16.0 0.00 0.00 0.00 50 1009.6
20260831052027 84 109 10.0 17.0 0.00 0.00 0.00 50 1009.6
20260831051545 84 113 11.0 17.0 0.00 0.00 0.00 50 1009.6
20260831051023 84 100 10.0 17.0 0.00 0.00 0.00 50 1009.6
20260831050523 84 110 10.0 16.0 0.00 0.00 0.00 49 1009.5
20260831050051 84 115 10.0 15.0 0.00 0.00 0.00 49 1009.5
20260831045525 84 107 11.0 15.0 0.00 0.00 0.00 49 1009.3
20260831045028 84 111 11.0 15.0 0.00 0.00 0.00 49 1009.3
20260831044636 84 114 11.0 15.0 0.00 0.00 0.00 49 1009.3
20260831044026 84 112 11.0 15.0 0.00 0.00 0.00 49 1009.3
20260831043524 84 104 10.0 16.0 0.00 0.00 0.00 49 1009.4
20260831043045 84 105 10.0 17.0 0.00 0.00 0.00 49 1009.3
20260831042524 84 103 10.0 17.0 0.00 0.00 0.00 49 1009.4
20260831042024 84 101 10.0 18.0 0.00 0.00 0.00 48 1009.5
20260831041557 85 94 12.0 18.0 0.00 0.00 0.00 48 1009.5
20260831041024 85 105 11.0 15.0 0.00 0.00 0.00 48 1009.6
20260831040525 85 115 10.0 15.0 0.00 0.00 0.00 48 1009.6
20260831040050 85 97 9.0 14.0 0.00 0.00 0.00 48 1009.6
20260831035524 85 99 9.0 14.0 0.00 0.00 0.00 48 1009.6
20260831035024 85 109 9.0 13.0 0.00 0.00 0.00 48 1009.6
20260831034545 85 119 8.0 12.0 0.00 0.00 0.00 48 1009.6
20260831034027 86 101 9.0 12.0 0.00 0.00 0.00 47 1009.5
20260831033525 86 104 8.0 12.0 0.00 0.00 0.00 47 1009.6
20260831033054 86 102 8.0 12.0 0.00 0.00 0.00 47 1009.6
20260831032525 86 108 7.0 13.0 0.00 0.00 0.00 47 1009.6
20260831032029 86 98 8.0 13.0 0.00 0.00 0.00 47 1009.6
20260831031549 87 108 9.0 14.0 0.00 0.00 0.00 47 1009.5
20260831031024 87 109 9.0 16.0 0.00 0.00 0.00 47 1009.6
20260831030527 87 103 9.0 16.0 0.00 0.00 0.00 46 1009.5
20260831030049 87 98 10.0 14.0 0.00 0.00 0.00 46 1009.4
20260831025525 87 96 9.0 12.0 0.00 0.00 0.00 46 1009.5
20260831025025 87 101 8.0 13.0 0.00 0.00 0.00 46 1009.4
20260831024545 88 105 8.0 14.0 0.00 0.00 0.00 45 1009.4
20260831024024 88 100 9.0 14.0 0.00 0.00 0.00 45 1009.4
20260831023522 88 108 9.0 13.0 0.00 0.00 0.00 45 1009.3
20260831023041 88 100 8.0 14.0 0.00 0.00 0.00 45 1009.3
20260831022525 88 108 9.0 14.0 0.00 0.00 0.00 45 1009.3
20260831022027 88 101 8.0 13.0 0.00 0.00 0.00 45 1009.2
20260831021547 88 109 9.0 13.0 0.00 0.00 0.00 44 1009.1
20260831021025 89 109 9.0 13.0 0.00 0.00 0.00 44 1009.1
20260831020524 89 104 9.0 13.0 0.00 0.00 0.00 44 1008.8
20260831020045 89 126 7.0 12.0 0.00 0.00 0.00 44 1008.8
20260831015525 89 113 8.0 13.0 0.00 0.00 0.00 43 1008.7
20260831015021 90 103 7.0 13.0 0.00 0.00 0.00 42 1008.6
20260831014550 90 107 6.0 11.0 0.00 0.00 0.00 42 1008.5
20260831014024 91 93 6.0 11.0 0.00 0.00 0.00 41 1008.6
20260831013526 91 103 8.0 11.0 0.00 0.00 0.00 40 1008.3
20260831013046 91 102 8.0 12.0 0.00 0.00 0.00 40 1008.3
20260831012524 92 98 8.0 12.0 0.00 0.00 0.00 39 1008.4
20260831012025 92 112 7.0 12.0 0.00 0.00 0.00 38 1008.3
20260831011554 93 102 8.0 12.0 0.00 0.00 0.00 37 1008.4
20260831011024 93 113 7.0 18.0 0.00 0.00 0.00 37 1008.2
20260831010525 94 108 8.0 18.0 0.00 0.00 0.00 37 1008.2
20260831010058 94 128 8.0 18.0 0.00 0.00 0.00 36 1008.2
20260831005525 95 131 7.0 13.0 0.00 0.00 0.00 36 1008.2
20260831005028 95 98 9.0 14.0 0.00 0.00 0.00 35 1008.1
20260831004548 96 123 9.0 18.0 0.00 0.00 0.00 35 1008.1
20260831004024 96 107 10.0 18.0 0.00 0.00 0.00 35 1008.1
20260831003527 97 118 9.0 16.0 0.00 0.00 0.00 35 1008.1
20260831003045 98 112 8.0 16.0 0.00 0.00 0.00 34 1008.1
20260831002524 98 99 8.0 16.0 0.00 0.00 0.00 34 1008.1
20260831002024 98 123 10.0 20.0 0.00 0.00 0.00 34 1008.1
20260831001544 99 132 12.0 21.0 0.00 0.00 0.00 33 1008.1
20260831001025 99 127 14.0 21.0 0.00 0.00 0.00 33 1008.2
20260831000525 99 129 13.0 21.0 0.00 0.00 0.00 33 1008.1
20260831000045 100 120 14.0 26.0 0.00 0.00 0.00 32 1008.1
20260830235524 100 113 14.0 26.0 0.00 0.00 0.00 32 1008.1
20260830235024 100 106 11.0 23.0 0.00 0.00 0.00 32 1008.0
20260830234550 100 107 14.0 24.0 0.00 0.00 0.00 32 1008.1
20260830234026 101 121 14.0 27.0 0.00 0.00 0.00 32 1008.0
20260830233525 101 116 15.0 27.0 0.00 0.00 0.00 31 1007.9
20260830233044 101 98 12.0 22.0 0.00 0.00 0.00 31 1007.8
20260830232526 101 100 10.0 21.0 0.00 0.00 0.00 32 1007.9
20260830232025 102 150 13.0 26.0 0.00 0.00 0.00 31 1008.0
20260830231543 102 125 15.0 26.0 0.00 0.00 0.00 32 1007.9
20260830231024 102 114 12.0 26.0 0.00 0.00 0.00 31 1007.9
20260830230524 102 123 16.0 26.0 0.00 0.00 0.00 31 1007.9
20260830230047 103 134 12.0 21.0 0.00 0.00 0.00 31 1007.7
20260830225525 103 113 12.0 24.0 0.00 0.00 0.00 31 1007.7
20260830225024 103 134 14.0 24.0 0.00 0.00 0.00 31 1007.6
20260830224548 103 126 14.0 23.0 0.00 0.00 0.00 31 1007.6
20260830224025 103 131 14.0 29.0 0.00 0.00 0.00 31 1007.6
20260830223524 103 119 16.0 29.0 0.00 0.00 0.00 30 1007.7
20260830223045 103 132 14.0 27.0 0.00 0.00 0.00 30 1007.7
20260830222526 104 145 18.0 27.0 0.00 0.00 0.00 30 1007.6
20260830222024 104 114 13.0 24.0 0.00 0.00 0.00 30 1007.6
20260830221541 104 109 13.0 26.0 0.00 0.00 0.00 31 1007.6
20260830221028 104 123 13.0 26.0 0.00 0.00 0.00 30 1007.7
20260830220524 104 109 14.0 21.0 0.00 0.00 0.00 29 1007.7
20260830220049 105 118 14.0 24.0 0.00 0.00 0.00 29 1007.7
20260830215524 105 121 15.0 24.0 0.00 0.00 0.00 29 1007.7
20260830215025 105 138 11.0 24.0 0.00 0.00 0.00 29 1007.8
20260830214545 104 123 16.0 24.0 0.00 0.00 0.00 30 1007.7
20260830214025 105 122 13.0 29.0 0.00 0.00 0.00 30 1007.6
20260830213528 105 134 17.0 29.0 0.00 0.00 0.00 30 1007.7
20260830213101 105 118 16.0 29.0 0.00 0.00 0.00 30 1007.6
20260830212525 105 113 20.0 30.0 0.00 0.00 0.00 30 1007.6
20260830212024 104 74 19.0 30.0 0.00 0.00 0.00 31 1007.7
20260830211550 104 136 17.0 29.0 0.00 0.00 0.00 31 1007.8
20260830211025 105 113 19.0 29.0 0.00 0.00 0.00 30 1007.8
20260830210523 105 117 16.0 29.0 0.00 0.00 0.00 30 1008.0
20260830210046 105 124 18.0 29.0 0.00 0.00 0.00 30 1008.0
20260830205529 106 137 15.0 25.0 0.00 0.00 0.00 30 1008.1
20260830205025 106 121 12.0 31.0 0.00 0.00 0.00 30 1008.1
20260830204543 105 105 17.0 31.0 0.00 0.00 0.00 30 1008.2
20260830204025 105 134 18.0 29.0 0.00 0.00 0.00 30 1008.2
20260830203524 105 125 16.0 33.0 0.00 0.00 0.00 30 1008.3
20260830203050 105 126 17.0 33.0 0.00 0.00 0.00 31 1008.4
20260830202526 105 104 13.0 27.0 0.00 0.00 0.00 31 1008.5
20260830202025 105 133 14.0 27.0 0.00 0.00 0.00 30 1008.4
20260830201546 105 119 14.0 27.0 0.00 0.00 0.00 30 1008.5
20260830201025 104 125 18.0 27.0 0.00 0.00 0.00 30 1008.6
20260830200524 105 140 17.0 25.0 0.00 0.00 0.00 30 1008.7
20260830200045 105 115 15.0 26.0 0.00 0.00 0.00 31 1008.6
20260830195524 104 130 13.0 31.0 0.00 0.00 0.00 31 1008.7
20260830195025 105 165 17.0 31.0 0.00 0.00 0.00 30 1008.8
20260830194544 105 117 15.0 30.0 0.00 0.00 0.00 31 1008.9
20260830194024 105 139 16.0 30.0 0.00 0.00 0.00 31 1008.9
20260830193525 104 105 16.0 30.0 0.00 0.00 0.00 31 1008.9
20260830193047 104 137 15.0 26.0 0.00 0.00 0.00 32 1009.1
20260830192524 104 134 13.0 28.0 0.00 0.00 0.00 31 1009.1
20260830192024 104 148 16.0 29.0 0.00 0.00 0.00 32 1009.2
20260830191546 104 111 18.0 29.0 0.00 0.00 0.00 32 1009.1
20260830191024 103 139 16.0 29.0 0.00 0.00 0.00 33 1009.1
20260830190524 103 137 15.0 34.0 0.00 0.00 0.00 33 1009.2
20260830190044 103 107 19.0 34.0 0.00 0.00 0.00 34 1009.1
20260830185525 103 139 15.0 34.0 0.00 0.00 0.00 34 1009.3
20260830185025 103 113 15.0 31.0 0.00 0.00 0.00 34 1009.3
20260830184550 103 138 17.0 33.0 0.00 0.00 0.00 33 1009.3
20260830184024 103 157 13.0 33.0 0.00 0.00 0.00 34 1009.4
20260830183526 103 132 13.0 27.0 0.00 0.00 0.00 35 1009.4
20260830183047 102 122 16.0 27.0 0.00 0.00 0.00 35 1009.4
20260830182532 102 146 15.0 30.0 0.00 0.00 0.00 35 1009.5
20260830182026 102 136 15.0 30.0 0.00 0.00 0.00 35 1009.4
20260830181546 101 148 20.0 30.0 0.00 0.00 0.00 36 1009.4
20260830181027 102 135 15.0 29.0 0.00 0.00 0.00 36 1009.6
20260830180525 101 127 20.0 31.0 0.00 0.00 0.00 36 1009.7
20260830180044 101 124 17.0 31.0 0.00 0.00 0.00 36 1009.7
20260830175524 101 142 17.0 28.0 0.00 0.00 0.00 37 1010.0
20260830175025 100 135 16.0 27.0 0.00 0.00 0.00 37 1010.0
20260830174547 100 128 13.0 27.0 0.00 0.00 0.00 38 1010.1
20260830174025 100 136 17.0 27.0 0.00 0.00 0.00 38 1010.1
20260830173527 100 134 16.0 27.0 0.00 0.00 0.00 38 1010.3
20260830173045 99 130 15.0 34.0 0.00 0.00 0.00 39 1010.4
20260830172524 98 147 17.0 34.0 0.00 0.00 0.00 39 1010.5
20260830172026 98 139 22.0 34.0 0.00 0.00 0.00 39 1010.6
20260830171546 98 132 15.0 28.0 0.00 0.00 0.00 39 1010.6
20260830171025 98 139 14.0 28.0 0.00 0.00 0.00 40 1010.6
20260830170524 97 131 18.0 28.0 0.00 0.00 0.00 40 1010.6
20260830170047 97 110 18.0 29.0 0.00 0.00 0.00 40 1010.6
20260830165525 97 126 13.0 29.0 0.00 0.00 0.00 41 1010.7
20260830165024 97 120 14.0 29.0 0.00 0.00 0.00 41 1010.9
20260830164549 96 142 14.0 28.0 0.00 0.00 0.00 42 1010.9
20260830164027 96 144 15.0 27.0 0.00 0.00 0.00 41 1011.0
20260830163526 96 115 11.0 27.0 0.00 0.00 0.00 42 1011.0
20260830163045 95 125 16.0 29.0 0.00 0.00 0.00 42 1010.8
20260830162523 94 141 13.0 29.0 0.00 0.00 0.00 43 1011.0
20260830162025 94 125 16.0 27.0 0.00 0.00 0.00 43 1011.0
20260830161557 94 134 15.0 27.0 0.00 0.00 0.00 43 1011.0
20260830161028 94 130 13.0 29.0 0.00 0.00 0.00 44 1011.0
20260830160526 93 149 18.0 29.0 0.00 0.00 0.00 44 1011.0
20260830160049 93 134 17.0 28.0 0.00 0.00 0.00 44 1011.0
20260830155525 93 127 18.0 27.0 0.00 0.00 0.00 43 1011.1
20260830155024 93 148 11.0 30.0 0.00 0.00 0.00 44 1010.9
20260830154547 92 129 13.0 30.0 0.00 0.00 0.00 45 1011.0
20260830154024 92 134 17.0 27.0 0.00 0.00 0.00 45 1011.0
20260830153524 92 144 15.0 27.0 0.00 0.00 0.00 45 1011.0
20260830153047 91 150 14.0 26.0 0.00 0.00 0.00 45 1010.9
20260830152525 91 152 11.0 27.0 0.00 0.00 0.00 46 1011.0
20260830152022 90 122 12.0 27.0 0.00 0.00 0.00 47 1011.0
20260830151549 90 150 17.0 26.0 0.00 0.00 0.00 47 1011.0
20260830151024 90 132 13.0 25.0 0.00 0.00 0.00 48 1011.0
20260830150527 89 128 11.0 25.0 0.00 0.00 0.00 48 1011.1
20260830150111 89 115 15.0 24.0 0.00 0.00 0.00 48 1011.1
20260830145524 88 100 15.0 24.0 0.00 0.00 0.00 49 1011.0
20260830145024 88 136 14.0 23.0 0.00 0.00 0.00 49 1011.0
20260830144545 87 134 15.0 23.0 0.00 0.00 0.00 50 1011.1
20260830144024 87 126 14.0 28.0 0.00 0.00 0.00 51 1011.1
20260830143525 86 117 12.0 28.0 0.00 0.00 0.00 52 1011.1
20260830143045 85 155 13.0 28.0 0.00 0.00 0.00 53 1011.1
20260830142524 85 152 12.0 21.0 0.00 0.00 0.00 54 1011.1
20260830142024 84 133 11.0 21.0 0.00 0.00 0.00 55 1011.1
20260830141546 84 126 12.0 21.0 0.00 0.00 0.00 55 1011.1
20260830141026 83 127 12.0 21.0 0.00 0.00 0.00 56 1011.1
20260830140525 82 124 10.0 19.0 0.00 0.00 0.00 57 1011.2
20260830140045 82 122 9.0 17.0 0.00 0.00 0.00 58 1011.2
20260830135527 81 126 10.0 17.0 0.00 0.00 0.00 59 1011.3
20260830135026 80 130 9.0 15.0 0.00 0.00 0.00 60 1011.3
20260830134547 80 137 9.0 16.0 0.00 0.00 0.00 61 1011.3
20260830134025 79 123 9.0 16.0 0.00 0.00 0.00 62 1011.3
20260830133524 78 123 9.0 14.0 0.00 0.00 0.00 63 1011.3
20260830133047 77 127 9.0 15.0 0.00 0.00 0.00 64 1011.2
20260830132526 77 105 8.0 15.0 0.00 0.00 0.00 65 1011.3